Change the Weather History Date:

Friday, April 12, 2013

  Actual Average Record
Temperature  
Mean Temperature 44 °F 48 °F  
Max Temperature 58 °F 63 °F 81 °F (1988)
Min Temperature 30 °F 34 °F 21 °F (2011)
Degree Days  
Heating Degree Days 21 17  
Month to date heating degree days 149 211  
Since 1 July heating degree days 4707 5415  
Cooling Degree Days 0 0  
Month to date cooling degree days 0 0  
Year to date cooling degree days 0 0  
Moisture  
Dew Point 30 °F    
Average Humidity 57    
Maximum Humidity 78    
Minimum Humidity 35    
Precipitation  
Precipitation T in 0.02 in 0.68 in (1995)
Month to date precipitation 0.40 0.20  
Year to date precipitation 1.30 2.74  
Snow  
Snow 0.00 in 0.00 in 0.00 in (2002)
Month to date snowfall 0.0 0.0  
Year to date snowfall 1.1 8.6  
Since 1 July snowfall 15.3 21.6  
Snow Depth 0.00 in    
Sea Level Pressure  
Sea Level Pressure 29.90 in    
Wind  
Wind Speed 4 mph (WSW)    
Max Wind Speed 13 mph    
Max Gust Speed 16 mph    
Visibility 10 miles    
Events Rain    
T = Trace of Precipitation, MM = Missing Value Source: NWS Daily Summary

Daily Weather History Graph

Daily Weather History Graph

Search for Another Location

Airport or City:

Trip Planner

Search our weather history database for the weather conditions in past years. The results will help you decide how hot, cold, wet, or windy it might be!

Date:

Astronomy

Apr. 12, 2013 Rise Set
Actual Time 6:19 AM PDT 7:46 PM PDT
Civil Twilight 5:48 AM PDT 8:18 PM PDT
Nautical Twilight 5:10 AM PDT 8:56 PM PDT
Astronomical Twilight 4:29 AM PDT 9:37 PM PDT
Moon 7:25 AM PDT (4/12) 10:31 PM PDT (4/12)
Length of Visible Light 14h 29m
Length of Day
13h 26m
Waxing Crescent, 6% of the Moon is Illuminated
Apr 12
Waxing Crescent
Apr 18
First Quarter
Apr 25
Full
May 2
Last Quarter
May 9
New

Hourly Weather History & Observations

Time (PDT) Temp. Windchill Dew Point Humidity Pressure Visibility Wind Dir Wind Speed Gust Speed Precip Events Conditions
12:53 AM 37.9 °F - 27.0 °F 65% 30.13 in 10.0 mi Calm Calm - N/A   Clear
1:53 AM 39.0 °F 36.8 °F 27.0 °F 62% 30.11 in 10.0 mi West 3.5 mph - N/A   Clear
2:53 AM 35.1 °F 29.3 °F 25.0 °F 67% 30.11 in 10.0 mi WSW 6.9 mph - N/A   Clear
3:53 AM 34.0 °F 28.8 °F 25.0 °F 70% 30.11 in 10.0 mi WSW 5.8 mph - N/A   Clear
4:53 AM 30.9 °F 26.2 °F 24.1 °F 76% 30.11 in 10.0 mi West 4.6 mph - N/A   Clear
5:53 AM 30.9 °F 21.7 °F 24.1 °F 76% 30.10 in 10.0 mi West 11.5 mph - N/A   Clear
6:53 AM 30.0 °F 24.1 °F 24.1 °F 79% 30.08 in 10.0 mi West 5.8 mph - N/A   Clear
7:53 AM 37.0 °F 33.3 °F 28.0 °F 70% 30.08 in 10.0 mi West 4.6 mph - N/A   Clear
8:53 AM 44.1 °F - 28.9 °F 55% 30.04 in 10.0 mi Calm Calm - N/A   Clear
9:53 AM 46.9 °F - 28.0 °F 48% 30.01 in 10.0 mi Calm Calm - N/A   Clear
10:53 AM 51.1 °F - 30.0 °F 44% 29.97 in 10.0 mi Calm Calm - N/A   Clear
11:53 AM 55.0 °F - 28.9 °F 37% 29.94 in 10.0 mi NE 5.8 mph - N/A   Mostly Cloudy
12:53 PM 55.0 °F - 28.9 °F 37% 29.89 in 10.0 mi Calm Calm - N/A   Mostly Cloudy
1:53 PM 55.9 °F - 28.0 °F 34% 29.85 in 10.0 mi Calm Calm - N/A   Mostly Cloudy
2:53 PM 55.9 °F - 28.9 °F 36% 29.83 in 10.0 mi Calm Calm - N/A   Overcast
3:53 PM 55.0 °F - 32.0 °F 42% 29.81 in 10.0 mi WSW 10.4 mph - 0.00 in Rain Light Rain
4:53 PM 53.1 °F - 37.0 °F 55% 29.78 in 10.0 mi Calm Calm - 0.00 in Rain Light Rain
5:53 PM 54.0 °F - 36.0 °F 51% 29.73 in 10.0 mi Calm Calm - 0.00 in   Scattered Clouds
6:53 PM 53.1 °F - 36.0 °F 52% 29.71 in 10.0 mi South 9.2 mph - N/A   Mostly Cloudy
7:53 PM 51.1 °F - 36.0 °F 56% 29.68 in 10.0 mi South 3.5 mph - N/A   Mostly Cloudy
8:53 PM 48.9 °F - 34.0 °F 56% 29.67 in 10.0 mi East 3.5 mph - N/A   Clear
9:53 PM 46.9 °F - 34.0 °F 61% 29.67 in 10.0 mi ENE 4.6 mph - N/A   Partly Cloudy
10:53 PM 43.0 °F - 33.1 °F 68% 29.65 in 10.0 mi Calm Calm - N/A   Clear
11:53 PM 42.1 °F 39.2 °F 32.0 °F 67% 29.64 in 10.0 mi Variable 4.6 mph - N/A   Clear